DW8816 Weather Reports


time (UTC)temp
C
wind
direction
speed
KPH
gust
KPH
rain 1hr
cm
rain 24hr
cm
rain mn
cm
humidity
%
barometer
mb
20260905061004 10 267 1.6 4.8 0.00 0.20 0.00 95 1020.8
20260905060004 11 267 1.6 6.4 0.00 0.20 0.00 95 1020.9
20260905055004 10 268 0.0 6.4 0.00 0.20 0.00 95 1020.7
20260905054004 11 270 1.6 6.4 0.00 0.20 0.00 95 1020.5
20260905053004 10 270 1.6 6.4 0.00 0.20 0.00 94 1020.4
20260905051003 11 270 1.6 6.4 0.00 0.20 0.00 94 1020.1
20260905050003 11 270 1.6 6.4 0.00 0.20 0.00 94 1020.2
20260905045004 11 272 3.2 6.4 0.00 0.20 0.00 94 1020.2
20260905043004 11 267 1.6 6.4 0.00 0.20 0.00 94 1020.0
20260905041003 11 270 1.6 6.4 0.00 0.20 0.00 94 1020.0
20260905040003 11 260 1.6 6.4 0.00 0.20 0.00 94 1019.9
20260905035003 11 260 1.6 4.8 0.00 0.20 0.00 93 1019.8
20260905034005 11 260 1.6 6.4 0.00 0.20 0.00 93 1019.7
20260905032003 11 260 1.6 4.8 0.00 0.20 0.00 93 1019.7
20260905031003 11 260 1.6 4.8 0.00 0.20 0.00 92 1019.5
20260905030003 11 260 1.6 6.4 0.00 0.20 0.00 93 1019.3
20260905025003 11 260 1.6 4.8 0.00 0.20 0.00 92 1019.2
20260905024003 11 261 1.6 6.4 0.00 0.20 0.00 92 1019.1
20260905023003 11 265 1.6 6.4 0.00 0.20 0.00 92 1018.9
20260905021003 12 269 1.6 6.4 0.00 0.20 0.00 92 1018.8
20260905020004 12 268 1.6 9.7 0.00 0.20 0.00 91 1018.7
20260905014003 12 270 1.6 9.7 0.00 0.20 0.00 91 1018.8
20260905013003 12 269 1.6 6.4 0.00 0.20 0.00 91 1018.8
20260905012004 12 264 1.6 6.4 0.00 0.20 0.00 91 1018.7
20260905011003 12 261 1.6 9.7 0.00 0.20 0.00 91 1018.6
20260905005003 12 253 1.6 6.4 0.00 0.20 0.00 90 1018.6
20260905003003 12 265 1.6 9.7 0.00 0.20 0.00 90 1018.4
20260905002003 12 0 0.0 4.8 0.00 0.20 0.00 89 1018.4
20260905001003 12 261 0.0 4.8 0.00 0.20 0.00 89 1018.3
20260905000003 12 262 1.6 3.2 0.00 0.20 0.00 89 1018.2
20260904235003 12 0 0.0 11.3 0.00 0.20 0.00 88 1018.2
20260904232003 13 286 0.0 9.7 0.00 0.20 0.00 87 1018.3
20260904231003 13 305 0.0 4.8 0.00 0.20 0.00 87 1018.2
20260904230003 13 318 1.6 9.7 0.00 0.20 0.00 87 1018.2
20260904225003 13 273 1.6 6.4 0.00 0.20 0.20 87 1018.0
20260904224003 13 260 1.6 9.7 0.00 0.20 0.20 87 1017.8
20260904223003 13 260 1.6 8.0 0.00 0.20 0.20 86 1017.8
20260904222004 13 263 1.6 9.7 0.00 0.20 0.20 86 1017.9
20260904221003 13 270 1.6 6.4 0.00 0.20 0.20 86 1017.8
20260904220004 13 274 1.6 9.7 0.00 0.20 0.20 86 1017.7
20260904215003 13 272 1.6 9.7 0.00 0.20 0.20 86 1017.7
20260904214003 14 272 1.6 9.7 0.00 0.20 0.20 86 1017.7
20260904213003 14 267 1.6 6.4 0.00 0.20 0.20 85 1017.6
20260904212003 14 267 1.6 4.8 0.00 0.20 0.20 84 1017.5
20260904211003 14 269 3.2 11.3 0.00 0.20 0.20 84 1017.4
20260904210004 15 270 1.6 11.3 0.00 0.20 0.20 83 1017.3
20260904205004 15 285 1.6 9.7 0.00 0.20 0.20 83 1017.3
20260904204003 15 311 0.0 6.4 0.00 0.20 0.20 82 1017.3
20260904203003 15 290 1.6 6.4 0.00 0.20 0.20 82 1017.3
20260904202004 15 271 3.2 6.4 0.00 0.20 0.20 81 1017.3
20260904201003 15 265 3.2 14.5 0.00 0.20 0.20 81 1017.2
20260904200004 15 269 3.2 11.3 0.00 0.20 0.20 80 1017.1
20260904194003 16 271 3.2 12.9 0.00 0.20 0.20 79 1017.0
20260904193003 16 271 3.2 11.3 0.00 0.20 0.20 78 1016.8
20260904192003 16 270 1.6 11.3 0.00 0.20 0.20 77 1016.5
20260904191003 16 256 1.6 11.3 0.00 0.20 0.20 76 1016.3
20260904190003 17 265 4.8 14.5 0.00 0.20 0.20 75 1016.2
20260904185003 17 275 3.2 14.5 0.00 0.20 0.20 74 1015.9
20260904182003 17 270 4.8 19.3 0.00 0.20 0.20 71 1015.5
20260904181003 17 273 3.2 17.7 0.00 0.20 0.20 71 1015.4
20260904180003 17 280 4.8 14.5 0.00 0.20 0.20 71 1015.5
20260904175004 18 272 4.8 17.7 0.00 0.20 0.20 71 1015.3
20260904174003 18 271 6.4 14.5 0.00 0.20 0.20 72 1015.0
20260904173003 18 259 3.2 17.7 0.00 0.20 0.20 71 1014.9
20260904172003 18 266 4.8 9.7 0.00 0.20 0.20 69 1014.8
20260904171003 18 283 4.8 12.9 0.00 0.20 0.20 68 1014.8
20260904170003 18 280 8.0 19.3 0.00 0.20 0.20 67 1014.7
20260904165003 18 266 6.4 20.9 0.00 0.20 0.20 67 1014.7
20260904163003 18 272 4.8 14.5 0.00 0.20 0.20 68 1014.5
20260904161004 18 267 6.4 24.1 0.00 0.20 0.20 67 1014.2
20260904160003 18 296 6.4 19.3 0.00 0.20 0.20 66 1014.2
20260904155004 18 288 6.4 19.3 0.00 0.20 0.20 66 1014.1
20260904152004 19 282 8.0 22.5 0.00 0.20 0.20 66 1014.1
20260904151005 19 275 9.7 25.7 0.00 0.20 0.20 66 1014.2
20260904150005 19 270 8.0 24.1 0.00 0.20 0.20 67 1014.1
20260904143003 19 286 6.4 19.3 0.00 0.20 0.20 68 1014.0
20260904142004 18 317 6.4 19.3 0.00 0.20 0.20 71 1013.9
20260904141005 18 300 8.0 24.1 0.00 0.20 0.20 73 1013.8
20260904140004 19 282 6.4 19.3 0.00 0.20 0.20 73 1013.8
20260904135004 19 276 6.4 24.1 0.00 0.20 0.20 73 1013.8
20260904134004 18 278 8.0 20.9 0.00 0.20 0.20 75 1013.7
20260904133004 18 273 8.0 24.1 0.00 0.20 0.20 74 1013.6
20260904131004 18 283 6.4 20.9 0.00 0.20 0.20 74 1013.6
20260904130004 19 301 9.7 24.1 0.00 0.20 0.20 74 1013.5
20260904123004 19 265 6.4 29.0 0.00 0.20 0.20 77 1012.9
20260904122005 19 264 6.4 24.1 0.00 0.20 0.20 77 1012.8
20260904121004 19 275 6.4 20.9 0.00 0.20 0.20 78 1012.8
20260904120003 18 280 4.8 16.1 0.00 0.20 0.20 79 1012.8
20260904115004 19 287 6.4 12.9 0.00 0.20 0.20 80 1012.7
20260904113004 18 302 4.8 16.1 0.00 0.20 0.20 82 1012.3
20260904112004 18 292 8.0 24.1 0.00 0.20 0.20 81 1012.3
20260904111005 18 284 4.8 19.3 0.00 0.20 0.20 81 1012.1
20260904110004 18 330 3.2 12.9 0.00 0.20 0.20 86 1012.2
20260904105004 18 317 6.4 20.9 0.00 0.20 0.20 86 1012.1
20260904104005 18 300 6.4 19.3 0.00 0.20 0.20 85 1012.3
20260904103003 18 280 6.4 20.9 0.00 0.20 0.20 85 1012.1
20260904102004 18 274 6.4 17.7 0.00 0.20 0.20 86 1011.9
20260904101005 18 299 6.4 22.5 0.00 0.20 0.20 85 1011.7
20260904100005 18 278 9.7 20.9 0.00 0.20 0.20 86 1011.6
20260904094003 18 275 6.4 24.1 0.00 0.20 0.20 89 1011.3
20260904093004 18 272 6.4 20.9 0.00 0.20 0.20 93 1011.1
20260904092004 18 274 4.8 19.3 0.00 0.20 0.20 93 1011.2
20260904091004 18 287 6.4 20.9 0.00 0.20 0.20 95 1011.2
20260904090006 17 284 4.8 17.7 0.00 0.20 0.20 95 1011.2
20260904085004 17 274 4.8 17.7 0.00 0.20 0.20 95 1010.9
20260904084004 17 270 4.8 14.5 0.03 0.20 0.20 95 1010.7
20260904083004 17 295 4.8 16.1 0.13 0.20 0.20 95 1010.5
20260904082004 17 323 8.0 17.7 0.18 0.20 0.20 95 1010.6
20260904081004 16 320 8.0 20.9 0.20 0.20 0.20 95 1010.4
20260904080003 16 310 8.0 22.5 0.20 0.20 0.20 94 1010.4
20260904074003 17 322 11.3 38.6 0.18 0.18 0.18 93 1010.4
20260904073003 18 270 11.3 24.1 0.05 0.05 0.05 95 1010.3
20260904070004 18 246 8.0 27.4 0.00 0.00 0.00 93 1009.0
20260904065004 19 253 9.7 27.4 0.00 0.00 0.00 92 1009.0
20260904064003 19 252 11.3 27.4 0.00 0.00 0.00 90 1009.0
20260904063004 20 250 11.3 38.6 0.00 0.00 0.00 89 1008.9